KC5EZZ-2 Weather Reports


time (UTC)temp
C
wind
direction
speed
KPH
gust
KPH
rain 1hr
cm
rain 24hr
cm
rain mn
cm
humidity
%
barometer
mb
20260507185934 17 135 17.7 20.9 0.00 0.00 0.00
20260507185435 17 128 14.5 12.9 0.00 0.00 0.00
20260507184933 18 73 16.1 17.7 0.00 0.00 0.00
20260507184433 17 59 16.1 11.3 0.00 0.00 0.00
20260507183934 17 42 16.1 16.1 0.00 0.00 0.00
20260507183431 17 38 14.5 17.7 0.00 0.00 0.00
20260507182932 17 39 14.5 19.3 0.00 0.00 0.00
20260507182432 17 56 19.3 14.5 0.00 0.00 0.00
20260507181929 17 48 14.5 17.7 0.00 0.00 0.00
20260507181430 17 100 14.5 16.1 0.00 0.00 0.00
20260507180930 17 82 22.5 17.7 0.00 0.00 0.00
20260507180428 17 62 20.9 12.9 0.00 0.00 0.00
20260507175928 17 55 19.3 14.5 0.00 0.00 0.00
20260507175429 17 21 17.7 16.1 0.00 0.00 0.00
20260507174926 17 25 16.1 16.1 0.00 0.00 0.00
20260507174427 17 23 19.3 17.7 0.00 0.00 0.00
20260507173927 17 49 17.7 22.5 0.00 0.00 0.00
20260507173425 18 35 14.5 19.3 0.00 0.00 0.00
20260507172925 17 58 20.9 17.7 0.00 0.00 0.00
20260507172426 18 28 16.1 25.7 0.00 0.00 0.00
20260507171923 17 55 16.1 14.5 0.00 0.00 0.00
20260507171424 17 30 14.5 19.3 0.00 0.00 0.00
20260507170924 16 1 12.9 22.5 0.00 0.00 0.00
20260507170422 17 23 17.7 16.1 0.00 0.00 0.00
20260507165922 17 8 14.5 20.9 0.00 0.00 0.00
20260507165423 16 32 11.3 14.5 0.00 0.00 0.00
20260507164920 16 37 17.7 16.1 0.00 0.00 0.00
20260507164421 16 55 12.9 17.7 0.00 0.00 0.00
20260507164017 16 11 16.1 12.9 0.00 0.00 0.00
20260507163921 16 11 16.1 12.9 0.00 0.00 0.00
20260507163419 15 32 17.7 17.7 0.00 0.00 0.00
20260507162919 16 45 12.9 16.1 0.00 0.00 0.00
20260507162420 16 359 12.9 12.9 0.00 0.00 0.00
20260507161917 15 58 16.1 12.9 0.00 0.00 0.00
20260507161418 15 41 16.1 16.1 0.00 0.00 0.00
20260507160919 15 18 12.9 17.7 0.00 0.00 0.00
20260507160416 14 8 19.3 14.5 0.00 0.00 0.00
20260507155917 14 7 16.1 16.1 0.00 0.00 0.00
20260507155417 14 13 16.1 17.7 0.00 0.00 0.00
20260507154915 13 3 16.1 17.7 0.00 0.00 0.00
20260507154415 14 32 20.9 16.1 0.00 0.00 0.00
20260507153916 14 31 16.1 20.9 0.00 0.00 0.00
20260507153414 13 15 14.5 17.7 0.00 0.00 0.00
20260507152914 13 20 16.1 19.3 0.00 0.00 0.00
20260507152415 13 354 16.1 22.5 0.00 0.00 0.00
20260507151912 13 14 20.9 22.5 0.00 0.00 0.00
20260507151413 13 4 17.7 16.1 0.00 0.00 0.00
20260507150913 12 8 19.3 22.5 0.00 0.00 0.00
20260507150411 12 13 17.7 16.1 0.00 0.00 0.00
20260507145911 12 3 17.7 14.5 0.00 0.00 0.00
20260507145412 12 7 16.1 16.1 0.00 0.00 0.00
20260507144910 12 6 17.7 14.5 0.00 0.00 0.00
20260507144410 13 346 16.1 20.9 0.00 0.00 0.00
20260507143911 12 28 17.7 17.7 0.00 0.00 0.00
20260507143409 12 17 14.5 22.5 0.00 0.00 0.00
20260507142909 12 51 14.5 9.7 0.00 0.00 0.00
20260507142410 12 20 16.1 12.9 0.00 0.00 0.00
20260507141908 12 6 17.7 17.7 0.00 0.00 0.00
20260507141408 12 41 14.5 16.1 0.00 0.00 0.00
20260507140909 12 23 14.5 14.5 0.00 0.00 0.00
20260507140407 12 14 17.7 19.3 0.00 0.00 0.00
20260507135907 12 13 17.7 17.7 0.00 0.00 0.00
20260507135408 12 25 16.1 14.5 0.00 0.00 0.00
20260507134906 12 354 17.7 16.1 0.00 0.00 0.00
20260507134406 12 21 16.1 17.7 0.00 0.00 0.00
20260507133907 12 28 16.1 19.3 0.00 0.00 0.00
20260507133405 12 34 14.5 14.5 0.00 0.00 0.00
20260507132905 12 8 19.3 22.5 0.00 0.00 0.00
20260507132406 12 31 19.3 19.3 0.00 0.00 0.00
20260507131905 12 3 17.7 12.9 0.00 0.00 0.00
20260507131404 12 1 16.1 16.1 0.00 0.00 0.00
20260507130905 11 23 16.1 16.1 0.00 0.00 0.00
20260507130402 12 17 17.7 20.9 0.00 0.00 0.00
20260507125903 12 349 16.1 17.7 0.00 0.00 0.00
20260507125403 12 18 14.5 12.9 0.00 0.00 0.00
20260507124901 12 13 14.5 12.9 0.00 0.00 0.00
20260507124402 12 23 17.7 24.1 0.00 0.00 0.00
20260507123902 11 17 14.5 16.1 0.00 0.00 0.00
20260507123400 11 1 17.7 16.1 0.00 0.00 0.00
20260507122900 11 25 12.9 16.1 0.00 0.00 0.00
20260507122401 11 24 12.9 12.9 0.00 0.00 0.00
20260507121859 11 349 12.9 22.5 0.00 0.00 0.00
20260507121400 11 342 14.5 14.5 0.00 0.00 0.00
20260507120900 11 7 14.5 16.1 0.00 0.00 0.00
20260507120357 11 32 12.9 9.7 0.00 0.00 0.00
20260507115858 11 359 19.3 12.9 0.00 0.00 0.00
20260507115358 12 7 20.9 14.5 0.00 0.00 0.00
20260507114856 11 4 19.3 16.1 0.00 0.00 0.00
20260507114356 12 25 16.1 14.5 0.00 0.00 0.00
20260507113857 12 10 17.7 17.7 0.00 0.00 0.00
20260507113354 12 353 16.1 16.1 0.00 0.00 0.00
20260507112855 12 13 14.5 11.3 0.00 0.00 0.00
20260507112355 12 357 14.5 14.5 0.00 0.00 0.00
20260507111853 12 4 14.5 17.7 0.00 0.00 0.00
20260507111424 12 13 17.7 14.5 0.00 0.00 0.00
20260507111353 12 13 17.7 14.5 0.00 0.00 0.00
20260507110926 12 8 19.3 17.7 0.00 0.00 0.00
20260507110854 12 8 19.3 17.7 0.00 0.00 0.00
20260507105852 12 4 14.5 12.9 0.00 0.00 0.00
20260507105352 12 359 17.7 16.1 0.00 0.00 0.00
20260507104850 13 353 16.1 14.5 0.00 0.00 0.00
20260507104350 12 35 16.1 14.5 0.00 0.00 0.00
20260507103850 12 18 22.5 20.9 0.00 0.00 0.00
20260507103348 12 0 14.5 22.5 0.00 0.00 0.00
20260507102848 12 18 20.9 19.3 0.00 0.00 0.00
20260507102348 12 13 17.7 14.5 0.00 0.00 0.00
20260507101846 13 1 16.1 16.1 0.00 0.00 0.00
20260507100847 12 0 20.9 19.3 0.00 0.00 0.00
20260507100344 13 18 12.9 11.3 0.00 0.00 0.00
20260507095844 13 349 17.7 14.5 0.00 0.00 0.00
20260507095345 13 13 12.9 12.9 0.00 0.00 0.00
20260507094842 13 14 16.1 11.3 0.00 0.00 0.00
20260507094343 13 357 16.1 17.7 0.00 0.00 0.00
20260507093843 13 1 14.5 14.5 0.00 0.00 0.00
20260507093340 13 3 16.1 14.5 0.00 0.00 0.00
20260507092841 13 21 14.5 16.1 0.00 0.00 0.00
20260507092341 13 31 14.5 12.9 0.00 0.00 0.00
20260507091839 13 21 14.5 17.7 0.00 0.00 0.00
20260507091339 13 7 19.3 20.9 0.00 0.00 0.00
20260507090839 13 14 14.5 16.1 0.00 0.00 0.00
20260507090337 13 30 16.1 14.5 0.00 0.00 0.00
20260507085837 13 352 16.1 14.5 0.00 0.00 0.00
20260507085338 13 25 14.5 19.3 0.00 0.00 0.00
20260507084835 13 6 16.1 14.5 0.00 0.00 0.00
20260507084335 13 6 14.5 14.5 0.00 0.00 0.00
20260507083835 13 3 16.1 16.1 0.00 0.00 0.00
20260507083333 13 3 17.7 19.3 0.00 0.00 0.00
20260507082833 13 11 12.9 12.9 0.00 0.00 0.00
20260507082334 13 8 12.9 9.7 0.00 0.00 0.00
20260507081831 13 14 11.3 11.3 0.00 0.00 0.00
20260507081332 13 18 11.3 12.9 0.00 0.00 0.00
20260507080832 13 8 11.3 11.3 0.00 0.00 0.00
20260507080330 13 21 11.3 12.9 0.00 0.00 0.00
20260507075830 13 28 11.3 11.3 0.00 0.00 0.00
20260507075330 13 28 12.9 12.9 0.00 0.00 0.00
20260507074828 13 8 11.3 9.7 0.00 0.00 0.00
20260507074328 13 6 12.9 12.9 0.00 0.00 0.00
20260507073829 13 10 12.9 9.7 0.00 0.00 0.00
20260507073326 13 1 14.5 17.7 0.00 0.00 0.00
20260507072827 13 7 16.1 12.9 0.00 0.00 0.00
20260507072327 13 15 14.5 12.9 0.00 0.00 0.00
20260507071825 13 347 14.5 16.1 0.00 0.00 0.00
20260507071325 13 4 16.1 17.7 0.00 0.00 0.00
20260507070826 14 8 14.5 17.7 0.00 0.00 0.00
20260507070323 13 13 14.5 16.1 0.00 0.00 0.00
20260507065824 13 13 12.9 9.7 0.00 0.00 0.00
20260507065324 13 34 12.9 14.5 0.00 0.00 0.00
20260507064822 14 25 12.9 14.5 0.00 0.00 0.00
20260507064322 13 4 12.9 14.5 0.00 0.00 0.00
20260507063823 14 13 12.9 14.5 0.00 0.00 0.00
20260507063320 14 18 9.7 12.9 0.00 0.00 0.00
20260507062821 14 25 11.3 12.9 0.00 0.00 0.00
20260507062321 14 10 14.5 9.7 0.00 0.00 0.00
20260507061819 14 13 14.5 14.5 0.00 0.00 0.00
20260507061320 14 15 11.3 12.9 0.00 0.00 0.00
20260507060820 14 24 12.9 14.5 0.00 0.00 0.00
20260507060721 14 17 12.9 8.0 0.00 0.00 0.00
20260507060318 14 17 12.9 8.0 0.00 0.00 0.00
20260507055818 14 37 12.9 12.9 0.00 0.00 0.00
20260507055319 14 41 12.9 11.3 0.00 0.00 0.00
20260507054817 15 31 14.5 11.3 0.00 0.00 0.00
20260507054317 15 30 9.7 8.0 0.00 0.00 0.00
20260507053818 15 38 11.3 14.5 0.00 0.00 0.00
20260507053315 15 59 14.5 12.9 0.00 0.00 0.00
20260507052816 15 30 14.5 16.1 0.00 0.00 0.00
20260507052316 15 11 12.9 16.1 0.00 0.00 0.00
20260507051814 15 31 12.9 14.5 0.00 0.00 0.00
20260507051314 15 30 11.3 12.9 0.00 0.00 0.00
20260507050815 15 44 12.9 14.5 0.00 0.00 0.00
20260507050313 15 27 12.9 9.7 0.00 0.00 0.00
20260507045813 15 49 14.5 11.3 0.00 0.00 0.00
20260507045313 15 37 14.5 16.1 0.00 0.00 0.00
20260507044811 15 31 11.3 14.5 0.00 0.00 0.00
20260507044312 16 48 11.3 14.5 0.00 0.00 0.00
20260507043812 16 65 16.1 12.9 0.00 0.00 0.00
20260507043310 16 65 17.7 17.7 0.00 0.00 0.00
20260507042810 16 21 14.5 17.7 0.00 0.00 0.00
20260507042311 16 14 16.1 16.1 0.00 0.00 0.00
20260507041808 16 44 12.9 14.5 0.00 0.00 0.00
20260507041309 16 28 11.3 11.3 0.00 0.00 0.00
20260507040809 16 45 11.3 11.3 0.00 0.00 0.00
20260507040307 16 52 8.0 8.0 0.00 0.00 0.00
20260507035807 16 42 8.0 9.7 0.00 0.00 0.00
20260507035308 17 42 9.7 11.3 0.00 0.00 0.00
20260507034806 17 52 11.3 11.3 0.00 0.00 0.00
20260507034306 17 44 12.9 16.1 0.00 0.00 0.00
20260507033304 17 89 9.7 12.9 0.00 0.00 0.00
20260507032804 17 70 11.3 11.3 0.00 0.00 0.00
20260507032306 17 62 8.0 8.0 0.00 0.00 0.00
20260507031803 17 49 4.8 9.7 0.00 0.00 0.00
20260507031303 17 53 9.7 6.4 0.00 0.00 0.00
20260507030804 17 35 11.3 11.3 0.00 0.00 0.00
20260507030301 17 66 11.3 11.3 0.00 0.00 0.00
20260507025802 18 75 11.3 12.9 0.00 0.00 0.00
20260507025306 17 42 12.9 11.3 0.00 0.00 0.00
20260507024800 18 31 6.4 4.8 0.00 0.00 0.00
20260507024301 18 72 6.4 6.4 0.00 0.00 0.00
20260507023801 18 45 8.0 9.7 0.00 0.00 0.00
20260507023259 18 56 11.3 9.7 0.00 0.00 0.00
20260507022759 18 56 11.3 9.7 0.00 0.00 0.00
20260507022300 18 39 11.3 11.3 0.00 0.00 0.00
20260507021757 19 42 8.0 8.0 0.00 0.00 0.00
20260507021258 19 69 12.9 8.0 0.00 0.00 0.00
20260507020758 19 68 16.1 12.9 0.00 0.00 0.00
20260507020256 19 69 9.7 8.0 0.00 0.00 0.00
20260507015757 19 51 12.9 9.7 0.00 0.00 0.00
20260507015257 19 48 8.0 12.9 0.00 0.00 0.00
20260507014755 19 58 8.0 6.4 0.00 0.00 0.00
20260507014255 20 27 6.4 8.0 0.00 0.00 0.00
20260507013756 20 51 6.4 6.4 0.00 0.00 0.00
20260507013253 20 49 12.9 12.9 0.00 0.00 0.00
20260507012753 20 51 12.9 12.9 0.00 0.00 0.00
20260507012253 20 44 11.3 14.5 0.00 0.00 0.00
20260507011750 20 73 12.9 16.1 0.00 0.00 0.00
20260507011251 20 31 11.3 9.7 0.00 0.00 0.00
20260507010751 20 46 9.7 9.7 0.00 0.00 0.00
20260507010249 20 17 16.1 14.5 0.00 0.00 0.00
20260507005749 20 44 11.3 14.5 0.00 0.00 0.00
20260507005249 21 46 9.7 8.0 0.00 0.00 0.00
20260507004746 21 38 14.5 17.7 0.00 0.00 0.00
20260507003746 21 89 12.9 12.9 0.00 0.00 0.00
20260507003244 21 45 16.1 14.5 0.00 0.00 0.00
20260507002744 21 44 14.5 12.9 0.00 0.00 0.00
20260507002244 21 52 17.7 17.7 0.00 0.00 0.00
20260507001243 21 38 17.7 17.7 0.00 0.00 0.00
20260507000743 21 42 16.1 12.9 0.00 0.00 0.00
20260506235741 21 65 12.9 16.1 0.00 0.00 0.00
20260506234738 21 80 12.9 12.9 0.00 0.00 0.00
20260506234239 21 63 14.5 8.0 0.00 0.00 0.00
20260506233739 21 53 12.9 12.9 0.00 0.00 0.00
20260506233237 21 53 11.3 11.3 0.00 0.00 0.00
20260506232737 21 27 12.9 11.3 0.00 0.00 0.00
20260506232238 21 60 9.7 9.7 0.00 0.00 0.00
20260506231735 21 62 12.9 9.7 0.00 0.00 0.00
20260506231236 21 51 14.5 16.1 0.00 0.00 0.00
20260506230736 22 60 12.9 9.7 0.00 0.00 0.00
20260506230234 22 27 8.0 11.3 0.00 0.00 0.00
20260506225734 22 65 11.3 11.3 0.00 0.00 0.00
20260506225235 22 108 12.9 9.7 0.00 0.00 0.00
20260506224732 22 101 9.7 9.7 0.00 0.00 0.00
20260506224233 22 42 9.7 19.3 0.00 0.00 0.00
20260506223733 22 94 11.3 11.3 0.00 0.00 0.00
20260506222731 22 89 9.7 9.7 0.00 0.00 0.00
20260506222232 22 56 9.7 8.0 0.00 0.00 0.00
20260506221729 22 15 11.3 11.3 0.00 0.00 0.00
20260506221230 22 41 8.0 9.7 0.00 0.00 0.00
20260506220730 22 82 8.0 8.0 0.00 0.00 0.00
20260506220228 22 100 4.8 6.4 0.00 0.00 0.00
20260506215728 22 39 4.8 1.6 0.00 0.00 0.00
20260506215229 21 8 4.8 1.6 0.00 0.00 0.00
20260506214726 21 42 4.8 0.0 0.00 0.00 0.00
20260506214227 22 35 0.0 9.7 0.00 0.00 0.00
20260506213727 22 60 14.5 9.7 0.00 0.00 0.00
20260506213225 22 104 6.4 6.4 0.00 0.00 0.00
20260506212725 21 28 8.0 0.0 0.00 0.00 0.00
20260506212226 21 32 12.9 12.9 0.00 0.00 0.00
20260506211723 21 39 8.0 8.0 0.00 0.00 0.00
20260506211224 21 11 8.0 14.5 0.00 0.00 0.00
20260506210724 20 42 8.0 4.8 0.00 0.00 0.00
20260506210222 21 59 6.4 3.2 0.00 0.00 0.00
20260506205722 21 55 8.0 11.3 0.00 0.00 0.00
20260506205223 21 28 9.7 8.0 0.00 0.00 0.00
20260506204720 21 65 9.7 4.8 0.00 0.00 0.00
20260506204221 20 72 12.9 12.9 0.00 0.00 0.00
20260506203721 20 58 6.4 8.0 0.00 0.00 0.00
20260506202719 21 39 8.0 14.5 0.00 0.00 0.00
20260506202220 20 82 11.3 8.0 0.00 0.00 0.00
20260506201718 20 44 9.7 11.3 0.00 0.00 0.00
20260506201218 20 87 9.7 4.8 0.00 0.00 0.00
20260506200719 20 37 14.5 9.7 0.00 0.00 0.00
20260506200216 20 63 11.3 12.9 0.00 0.00 0.00
20260506195717 20 39 11.3 9.7 0.00 0.00 0.00
20260506195217 19 330 11.3 8.0 0.00 0.00 0.00
20260506194715 19 60 16.1 11.3 0.00 0.00 0.00
20260506194215 19 14 14.5 9.7 0.00 0.00 0.00
20260506193716 19 17 14.5 9.7 0.00 0.00 0.00
20260506193214 19 10 9.7 0.0 0.00 0.00 0.00
20260506192714 18 72 12.9 16.1 0.00 0.00 0.00
20260506192214 17 70 9.7 6.4 0.00 0.00 0.00
20260506191711 17 18 14.5 16.1 0.00 0.00 0.00
20260506191212 17 68 11.3 11.3 0.00 0.00 0.00
20260506190712 17 80 11.3 8.0 0.00 0.00 0.00
20260506190210 17 30 11.3 8.0 0.00 0.00 0.00